STARLINK-32308, 61663

Orbit data source: Space-Track

STARLINK-32308, 61663 is a payload satellite owned by SpaceX/Seattle (US) in LEO that was launched on Sat, 26 Oct 2024 UTC via an FALCON 9 launch vehicle from the Air Force Eastern Test Range (AFETR). Payloads include a variety of satellites, spacecraft, and rockets equipped with specific instruments for various scientific and technological missions. These include communications satellites like Starlink; space stations such as the ISS; scientific satellites like the Hubble; Earth observation satellites from companies like Planet Labs, Umbra, and HawkEye 360; GPS; miniature CubeSats for education and research; and military/defense satellites.

Loading next visibility...
STARLINK-32308 details
Identifier
61663, 2024-193C
Orbit
LEO
Last TLE update13 hours ago
Origin
Flag of USSpaceX/Seattle (US)
ManufacturerSpaceX/Seattle
MissionOperational spacecraft
Bus & MotorSTARLINK V2M, Unknown motor
Mass730 kg wet, ~700 kg dry
Launch date (UTC)
2024-10-26 (2 months ago)
Launch vehicle
FALCON 9
Launch site
Air Force Eastern Test Range (AFETR)
Object type
Payload
Rocket body
Debris
Shape & HBRUnknown
Radar Cross SectionLarge (>1 m²)

Expand to show TLE details & history

TLE from 13 hours ago
0 STARLINK-32308
1 61663U 24193C   24361.32775272  .00000235  00000-0  15858-4 0  9993
2 61663  53.1620 329.1370 0001141 107.5575 252.5554 15.39611829  9386
Epoch: 2024-12-26T07:51Z
Definitive object data (Epoch: 2024-12-26T07:51:57.835Z)
Latitude-0.00005°
Longitude115.83725°
Altitude448.393 km
Speed7.644 km/s
True Right ascension21h 56m 32s
True Declination0° 00' 00"
Sunlit
Object was in daylight at TLE epoch
Visualization TLE readout
Latitude-39.09937°
Longitude-29.54829°
Altitude460.468 km
Speed7.636 km/s
Apparent Right ascension10h 33m 35s
Apparent Declination-42° 27' 18"
Sunlit
Object is in daylight
Visualization observer readout
Local Sidereal Time20:42:52
Azimuth253.969° W
Elevation-69.11°
Doppler factor1
Orbital elements
Apogee altitude448.292 km
Perigee altitude446.735 km
Semi-major axis6,825.65 km
Eccentricity0.0001141
Inclination53.162°
RAAN329.137°
Arg. of periapsis107.5575°
True anomaly252.54293°
Mean anomaly252.5554°
Eccentric anomaly252.54916°
Mean motion3.84882 °/min
BSTAR0.000015858
Orbital period93.54 mins
Loading maneuver chart data...
Loading historical data...
Loading historical data...
Loading historical data...
Loading historical data...
Loading historical data...
Loading historical data...
Loading historical data...

STARLINK-32308 Visibility forecast

Observer location: undefined°, undefined

Span
Click to sort rows by Start time (UTC) header in descending order
Start Az.
Max El. time (UTC)
Max El. Az.
Max El.
End time (UTC)
End Az.
4 mins2024-12-26 23:35:54.425Z162.595° S2024-12-26 23:37:54.425Z126.848° SE14.542°2024-12-26 23:39:54.425Z91.529° ESE
5 mins2024-12-27 01:12:54.425Z251.329° W2024-12-27 01:14:54.425Z330.986° NNW39.922°2024-12-27 01:17:54.425Z41.873° NE
5 mins2024-12-27 07:44:54.425Z304.715° NW2024-12-27 07:46:54.425Z278.004° WNW41.423°2024-12-27 07:49:54.425Z139.003° SSE
|